DL6EBP-10 Weather Reports


time (UTC)temp
C
wind
direction
speed
KPH
gust
KPH
rain 1hr
cm
rain 24hr
cm
rain mn
cm
humidity
%
barometer
mb
20260502214118 14 0.0 0.0 0.00 0.00 0.00 99
20260502212118 14 0.0 0.0 0.00 0.00 0.00 99
20260502210118 14 0.0 0.0 0.00 0.00 0.00 99
20260502204118 15 0.0 0.0 0.00 0.00 0.00 99
20260502202118 15 0.0 0.0 0.00 0.00 0.00 99
20260502200118 15 0.0 0.0 0.00 0.00 0.00 99
20260502194118 15 0.0 0.0 0.00 0.00 0.00 99
20260502192118 15 0.0 0.0 0.00 0.00 0.00 99
20260502190118 15 0.0 0.0 0.00 0.00 0.00 99
20260502184118 16 0.0 0.0 0.00 0.00 0.00 99
20260502182118 15 0.0 0.0 0.00 0.00 0.00 99
20260502180118 16 0.0 0.0 0.00 0.00 0.00 99
20260502170118 20 0.0 0.0 0.00 0.00 0.00 94
20260502164117 20 0.0 0.0 0.00 0.00 0.00 92
20260502162118 20 0.0 0.0 0.00 0.00 0.00 95
20260502160117 20 0.0 0.0 0.00 0.00 0.00 92
20260502152117 21 0.0 0.0 0.00 0.00 0.00 83
20260502150117 21 0.0 0.0 0.00 0.00 0.00 88
20260502140117 18 0.0 0.0 0.00 0.00 0.00 99
20260502130117 20 0.0 0.0 0.00 0.00 0.00 83
20260502122117 22 0.0 0.0 0.00 0.00 0.00 67
20260502120117 23 0.0 0.0 0.00 0.00 0.00 54
20260502114117 23 0.0 0.0 0.00 0.00 0.00 53
20260502112117 23 0.0 0.0 0.00 0.00 0.00 52
20260502110117 23 0.0 0.0 0.00 0.00 0.00 54
20260502104117 22 0.0 0.0 0.00 0.00 0.00 56
20260502102117 22 0.0 0.0 0.00 0.00 0.00 55
20260502100117 21 0.0 0.0 0.00 0.00 0.00 58
20260502090117 20 0.0 0.0 0.00 0.00 0.00 61
20260502070117 14 0.0 0.0 0.00 0.00 0.00 72
20260502064117 13 0.0 0.0 0.00 0.00 0.00 73
20260502062117 12 0.0 0.0 0.00 0.00 0.00 74
20260502060117 12 0.0 0.0 0.00 0.00 0.00 70
20260502054117 11 0.0 0.0 0.00 0.00 0.00 71
20260502052117 11 0.0 0.0 0.00 0.00 0.00 75
20260502050117 10 0.0 0.0 0.00 0.00 0.00 76
20260502044117 9 0.0 0.0 0.00 0.00 0.00 79
20260502042117 9 0.0 0.0 0.00 0.00 0.00 81
20260502040117 9 0.0 0.0 0.00 0.00 0.00 78
20260502034117 8 0.0 0.0 0.00 0.00 0.00 79
20260502032117 8 0.0 0.0 0.00 0.00 0.00 79
20260502030117 8 0.0 0.0 0.00 0.00 0.00 80
20260502024117 8 0.0 0.0 0.00 0.00 0.00 79
20260502022117 8 0.0 0.0 0.00 0.00 0.00 81
20260502020117 8 0.0 0.0 0.00 0.00 0.00 79
20260502012117 9 0.0 0.0 0.00 0.00 0.00 76
20260502010117 10 0.0 0.0 0.00 0.00 0.00 72
20260502004117 10 0.0 0.0 0.00 0.00 0.00 71
20260502002117 10 0.0 0.0 0.00 0.00 0.00 72
20260502000117 10 0.0 0.0 0.00 0.00 0.00 72
20260501234117 10 0.0 0.0 0.00 0.00 0.00 71
20260501232117 11 0.0 0.0 0.00 0.00 0.00 69
20260501230117 11 0.0 0.0 0.00 0.00 0.00 71
20260501224117 11 0.0 0.0 0.00 0.00 0.00 69
20260501222117 11 0.0 0.0 0.00 0.00 0.00 70
20260501220117 12 0.0 0.0 0.00 0.00 0.00 69